Orbital Elements
Epoch 2022 Jan. 21.0 TT = JDT 2459600.5
T 2021 May 14.66636 TT Rudenko
q 1.6741293 (2000.0) P Q
n 0.15154433 Peri. 36.81738 +0.90887405 +0.39659336
a 3.4842523 Node 299.33623 -0.40919025 +0.78804141
e 0.5195155 Incl. 8.51501 -0.08069267 +0.47085502
P 6.50
From 121 observations 2014 June 21-2021 Dec. 14, mean residual 0".6.
|